Lapse_Rate
5.7 5.0 3.8 3.4 3.8 4.0 4.3 4.2 4.0 4.3 5.3 6.0 6.8 6.3 5.5 5.7 5.2 4.7 4.3 4.8 4.7 4.4 3.0 3.1 1.2 1.8 6.1
4.9 5.0 4.1 3.5 3.5 3.3 4.5 5.2 5.3 5.3 6.3 6.6 6.6 6.8 6.7 7.0 7.2 5.8 5.6 5.9 5.8 4.7 5.3 4.0 1.4 0.1 0.9
3.9 5.5 4.4 4.1 4.0 3.9 4.1 4.4 5.2 6.1 7.0 7.2 7.0 7.3 9.1 7.9 9.2 9.4 9.4 8.5 7.3 7.0 4.3 4.4 2.9 0.9 1.7
4.6 5.2 4.8 4.5 4.9 4.4 3.9 4.7 4.9 5.8 6.5 7.3 7.8 7.9 7.9 7.9 8.8 8.9 8.9 8.6 8.1 7.1 5.5 4.4 4.5 2.7 1.7
6.0 5.9 6.0 5.0 4.7 5.1 5.8 5.4 5.1 5.3 5.6 5.7 5.9 6.9 7.0 7.9 8.3 8.0 8.2 8.3 8.3 8.1 6.4 4.8 4.2 3.3 1.8
5.7 6.8 6.1 5.8 5.6 5.5 6.0 6.7 6.4 6.6 6.5 6.0 6.4 6.9 6.9 7.3 8.0 8.1 7.7 8.4 8.7 8.4 7.1 7.1 4.8 4.1 2.6
7.8 6.9 5.8 6.3 6.3 7.0 6.7 6.1 5.5 5.5 6.4 6.4 6.6 6.2 6.1 6.6 7.2 7.9 8.3 8.3 8.1 7.9 7.5 6.8 6.1 3.7 4.6
7.4 6.8 6.8 6.7 6.2 6.9 6.4 6.9 6.9 6.5 6.8 7.1 6.0 5.7 6.0 6.4 7.2 7.4 7.2 7.1 7.2 7.2 6.9 6.2 6.1 5.3 3.4
9.2 9.2 9.3 9.3 8.8 5.6 5.4 6.3 7.3 7.2 6.8 7.2 6.0 5.9 6.1 6.6 6.5 6.6 6.9 7.7 7.4 6.5 6.1 6.5 6.4 6.5 4.6
7.1 7.1 7.6 7.3 8.5 8.1 7.5 5.2 6.2 6.8 7.1 7.2 6.7 6.9 7.1 6.6 7.1 6.8 7.5 7.3 7.9 7.2 7.0 7.5 6.6 6.8 6.2
6.2 6.5 6.6 6.8 7.8 7.0 6.5 7.3 6.9 6.5 7.2 7.3 6.2 6.1 6.6 7.3 7.0 6.7 7.5 7.5 6.7 6.9 6.9 6.3 5.9 6.2 5.9
6.4 6.3 7.0 7.7 7.4 7.1 6.8 7.0 7.0 6.6 6.6 7.1 6.2 6.4 6.7 7.1 6.9 6.5 6.9 7.1 7.8 6.6 6.6 5.9 5.1 5.3 5.5
6.7 7.4 7.1 6.7 6.4 6.4 6.9 6.8 6.5 6.2 6.1 5.5 6.0 5.9 5.9 6.1 6.7 6.1 6.3 5.8 7.2 6.3 5.5 5.5 4.7 4.1 3.4
7.5 6.8 6.4 6.3 6.6 7.2 7.3 7.2 7.2 6.9 4.9 5.2 6.6 6.4 6.2 6.0 6.0 6.0 6.3 7.1 5.3 6.5 5.9 6.0 5.2 4.8 4.5
6.8 6.9 7.1 7.2 7.2 7.2 7.1 7.2 6.8 6.8 6.1 5.8 6.5 6.6 6.2 6.3 6.6 6.6 6.3 6.4 5.9 6.1 5.3 4.9 4.5 4.6 4.7
7.1 7.0 7.0 7.0 6.9 6.9 7.3 6.9 7.1 6.6 6.4 6.4 6.4 6.3 6.4 6.1 6.4 6.4 5.9 6.1 5.7 5.1 5.3 5.8 5.2 3.9 4.1
6.4 6.5 6.6 6.9 6.9 6.5 6.8 7.0 6.9 6.8 6.5 6.0 5.6 6.2 6.7 6.5 4.8 6.4 5.0 4.0 5.1 5.7 6.3 6.3 6.2 5.5 4.8
Wind_Speed
8 8 7 9 12 16 18 19 21 27 31 32 32 34 36 36 36 37 37 38 36 35 31 32 29 24 50
11 8 10 8 9 10 13 18 19 26 31 34 35 36 37 37 37 38 37 37 37 35 36 33 36 37 42
13 8 8 7 8 9 10 13 19 26 31 33 33 34 33 36 35 34 33 34 34 32 32 30 29 28 39
12 9 8 8 7 9 10 8 10 17 23 27 30 33 36 35 35 35 32 33 37 35 34 29 24 23 30
11 10 9 9 10 8 10 9 11 9 10 11 11 15 14 21 24 27 26 27 26 31 34 32 28 25 26
10 11 15 10 10 10 10 9 11 10 10 11 10 9 10 18 26 31 33 32 32 33 33 30 28 27 24
16 12 15 12 13 13 13 12 13 12 8 12 10 12 11 19 29 31 32 33 35 36 34 33 32 28 26
14 14 14 12 13 13 15 16 14 12 10 13 11 13 11 17 30 32 35 37 38 38 36 35 33 30 25
29 30 30 30 25 10 12 12 13 13 10 11 13 12 11 11 13 32 33 32 33 35 35 32 31 30 23
11 15 16 15 26 17 12 11 11 10 10 10 12 9 6 7 9 5 8 21 27 19 18 25 30 14 12
6 8 9 11 10 11 13 12 10 11 9 5 4 5 8 9 8 10 10 11 8 11 16 13 17 12 8
7 8 9 8 8 9 11 12 11 15 13 11 6 9 10 11 11 7 7 7 8 8 7 10 13 19 19
8 8 7 8 11 11 11 13 14 14 15 14 10 11 10 11 9 8 9 5 5 8 6 7 7 7 11
7 7 8 8 8 8 9 8 9 10 13 17 15 13 11 11 10 11 9 8 3 6 8 8 8 7 8
7 8 8 8 8 7 7 8 8 8 9 7 11 14 11 13 10 9 10 7 5 9 9 10 8 8 9
7 7 8 8 8 7 6 6 7 7 7 6 7 6 7 9 17 9 6 7 8 8 7 9 10 8 8
7 7 8 7 10 7 7 7 7 7 7 5 6 6 7 8 3 19 5 3 5 6 8 8 10 9 8
Wind_Direction
263 274 267 278 286 283 287 293 293 294 294 292 288 288 286 283 282 281 280 279 278 277 282 289 303 324 217
274 277 270 268 274 279 284 281 279 282 285 287 286 284 282 279 280 276 274 275 273 269 263 274 301 305 315
274 265 266 267 271 271 271 271 273 274 281 284 284 281 279 279 280 274 274 271 273 275 267 269 277 292 279
269 270 268 266 254 263 270 261 267 270 274 276 280 282 280 275 273 272 276 273 273 270 267 260 262 278 311
263 275 270 271 253 256 257 266 266 262 269 271 271 274 270 287 288 286 281 277 278 275 270 263 265 272 294
256 260 264 256 264 254 256 260 271 240 251 266 252 269 277 279 279 280 281 283 279 282 279 274 263 264 277
276 265 261 259 261 261 252 247 253 259 258 267 264 268 266 266 274 276 275 276 275 275 274 277 269 257 255
265 265 265 260 252 253 255 258 259 257 247 264 264 264 266 264 268 270 272 272 272 271 268 268 264 263 265
275 279 281 279 268 247 237 240 252 253 238 244 260 263 264 265 262 265 269 272 270 266 264 262 253 263 255
277 277 279 278 277 269 266 236 243 261 239 233 252 254 266 242 253 257 290 287 285 296 294 270 251 252 253
292 285 282 278 275 258 256 253 252 242 246 210 221 234 241 274 279 285 290 280 285 293 292 308 301 257 254
293 288 283 287 297 291 264 253 250 256 266 252 250 240 253 262 270 270 254 273 281 278 288 291 301 297 278
282 281 285 287 290 286 279 258 252 252 251 242 242 244 244 249 260 258 266 263 251 275 264 284 286 288 286
288 288 286 283 286 287 287 294 263 256 240 238 238 244 245 241 245 256 250 254 234 269 280 279 278 271 271
283 285 287 288 287 291 288 287 297 278 259 245 231 234 241 247 250 245 248 246 241 273 279 281 276 273 269
287 286 288 288 292 291 291 285 290 286 294 292 252 238 239 244 233 252 240 251 259 257 262 273 283 281 276
285 285 287 291 298 292 291 289 288 288 288 290 293 305 273 256 264 211 222 224 246 260 271 267 278 280 276